Location: Amsterdam
(30.7274°N, 84.4357°W)
Time: 01:15:20
(UTC+00:00)

BlueWalker 3 - Pass Details

Date: 19 January 2026
Orbit: 450 x 461 km, 53.2° (Epoch: 11 February)

Event Time Altitude Azimuth Distance (km) Brightness Sun altitude
Rises 01:18:46 0° 254° (WSW) 2,444 6.6 -29.2°
Reaches altitude 10° 01:21:19 10° 273° (W) 1,574 5.3 -29.7°
Enters shadow 01:22:35 16° 291° (WNW) 1,263 4.6 -30.0°
